Location: ???????
(54.9996°N, 37.9529°E)
Time: 15:30:25
(UTC+00:00)

COSMOS 2441 - Visible Passes

Search period start: 12 July 2024 00:00
Search period end: 22 July 2024 00:00
Orbit: 706 x 729 km, 98.2° (Epoch: 11 July)

Date Brightness Start Highest point End Pass type
(mag) Time Alt. Az. Time Alt. Az. Time Alt. Az.
12 Jul 4.4 00:07:39 10° NNE 00:12:34 82° WNW 00:17:28 10° SSW visible
12 Jul 5.4 23:17:08 10° NNE 23:21:46 41° E 23:26:23 10° SSE visible
13 Jul 6.6 22:27:21 10° NE 22:30:37 18° E 22:33:52 10° SE visible
14 Jul 4.4 00:04:25 10° NNE 00:09:20 87° WNW 00:14:14 10° SSW visible
14 Jul 5.5 23:13:55 10° NNE 23:18:31 39° E 23:23:06 10° SSE visible
15 Jul 6.6 22:24:13 10° NE 22:27:20 17° E 22:30:25 10° SE visible
16 Jul 4.5 00:01:10 10° NNE 00:06:05 89° ESE 00:10:59 10° SSW visible
16 Jul 5.6 23:10:42 10° NNE 23:15:15 37° E 23:19:47 10° SSE visible
17 Jul 6.7 22:21:06 10° NE 22:24:02 16° E 22:26:59 10° ESE visible
17 Jul 4.5 23:57:55 10° NNE 00:02:51 85° ESE 00:07:45 10° SSW visible
18 Jul 5.6 23:07:29 10° NNE 23:11:59 35° E 23:16:27 10° SSE visible
19 Jul 6.7 22:17:59 10° NE 22:20:45 15° E 22:23:30 10° ESE visible
19 Jul 4.5 23:54:40 10° NNE 23:59:36 80° ESE 00:04:31 10° SSW visible
20 Jul 5.7 23:04:15 10° NNE 23:08:43 33° E 23:13:07 10° SSE visible
21 Jul 6.8 22:14:53 10° NE 22:17:27 14° E 22:20:00 10° ESE visible
